Wind_Speed
8 8 8 9 9 9 10 10 11 12 13 15 15 17 18 19 19 19 19 21 21 22 22 22 22 21 21 21 22 22 22 22 22 23 22 22 22 21 21 22 21 21
9 9 10 10 10 11 12 13 14 15 17 18 20 21 22 21 21 22 22 22 23 23 22 22 22 22 21 21 22 22 23 23 24 24 24 24 23 23 22 22 22 21
11 12 12 13 13 14 16 17 18 19 20 21 22 23 23 22 23 23 23 24 24 24 23 23 23 22 22 22 22 23 22 23 24 24 24 25 25 25 24 24 23 22
13 14 15 15 16 18 19 20 21 22 22 23 23 23 23 23 23 24 24 25 25 25 25 25 25 24 23 23 22 22 22 22 23 23 24 25 25 25 25 25 25 24
13 14 15 16 17 19 20 21 22 22 23 24 24 24 24 25 25 25 25 25 25 25 26 25 26 26 26 25 24 24 23 22 22 22 23 25 25 25 26 26 26 26
15 15 16 18 19 20 21 22 23 23 24 25 26 26 26 26 27 27 27 27 26 26 26 26 27 27 27 26 27 26 24 24 23 22 22 23 25 25 25 26 26 26
15 16 17 19 20 21 22 23 23 24 25 26 27 27 27 28 29 30 30 30 30 30 30 29 30 30 28 28 29 27 26 25 24 22 22 23 24 24 24 26 27 27
16 17 18 19 20 21 22 23 24 25 26 26 27 27 27 27 28 29 29 30 30 31 30 29 30 31 30 29 29 27 26 26 25 24 24 23 23 24 24 25 27 28
16 17 18 19 20 21 21 22 23 24 24 25 26 27 28 28 28 28 28 29 30 31 31 30 30 30 30 29 28 27 27 28 29 28 26 24 23 24 24 24 25 27
16 17 19 19 20 20 21 21 23 24 26 27 28 28 28 28 28 28 28 29 29 30 31 31 31 31 32 31 30 30 29 29 30 30 28 26 24 23 23 24 24 26
18 18 19 19 19 20 21 23 25 28 29 27 26 26 26 27 27 26 27 28 28 29 30 31 31 32 32 32 32 31 31 30 30 30 31 30 27 26 25 24 25 26
17 18 18 19 20 21 24 26 26 26 25 23 23 25 25 26 26 25 26 27 27 28 29 30 31 32 31 31 31 32 32 32 30 29 29 30 28 27 26 25 26 27
18 19 19 20 22 23 25 25 23 21 23 24 24 25 25 26 26 26 27 28 28 29 29 29 30 31 30 30 31 31 30 32 31 30 30 29 27 26 26 26 26 26
19 19 20 23 24 23 23 22 22 22 24 24 24 25 26 26 26 26 28 28 28 29 29 29 30 30 31 31 31 30 29 30 30 29 29 29 27 25 25 26 26 26
18 20 22 22 21 21 21 22 23 24 25 25 26 27 27 27 28 28 29 29 29 30 30 31 31 32 32 31 30 31 30 30 29 27 28 28 26 24 24 25 26 26
20 21 21 20 21 22 23 23 24 25 27 27 27 28 28 28 29 28 28 28 29 30 31 31 31 31 31 30 31 32 33 32 31 29 29 28 26 25 24 25 26 26
20 21 21 22 23 23 23 24 26 26 27 26 25 26 26 26 26 26 27 28 29 30 30 31 31 30 30 31 32 34 34 34 33 30 29 28 27 26 26 26 26 26
20 21 22 23 23 23 24 26 26 23 22 23 24 25 25 26 27 28 29 30 31 31 31 31 32 31 31 33 34 35 36 37 36 33 31 31 30 28 28 27 26 26
21 21 23 24 24 25 27 26 24 22 23 25 25 26 27 28 29 31 32 32 32 32 32 32 33 33 34 37 38 39 39 40 40 39 36 34 33 31 30 28 27 27
22 22 24 26 26 26 26 25 23 23 25 25 26 27 27 28 29 30 31 30 30 30 31 33 34 34 35 35 36 35 36 38 40 40 38 36 35 34 33 32 30 29
23 24 26 27 26 26 25 24 23 24 25 26 26 27 27 27 28 28 28 28 29 30 32 32 32 33 33 32 32 32 33 37 39 38 37 37 36 35 34 34 33 32
23 24 25 27 27 27 26 24 24 24 26 27 27 27 28 28 28 28 28 29 30 32 33 34 34 34 35 35 35 37 39 41 42 40 36 36 37 37 36 35 34 34
24 25 26 27 27 26 26 26 26 25 25 25 26 28 28 28 28 28 29 30 31 33 34 35 34 32 33 35 36 37 38 40 44 44 39 36 36 37 36 36 35 35
24 24 25 25 25 25 26 27 27 26 26 26 26 27 26 26 26 28 29 30 32 33 33 33 33 33 36 38 39 39 39 39 41 43 41 38 36 35 35 35 35 37
22 23 25 25 25 25 26 27 27 27 27 27 26 26 26 27 28 29 31 32 34 35 35 36 38 40 41 41 41 40 39 40 40 38 35 34 35 35 35 35 35 36
23 24 25 25 26 26 26 27 27 27 28 28 27 27 28 30 32 33 35 36 37 39 39 40 42 44 45 45 45 43 40 40 42 39 33 31 32 33 34 35 36 35
Wind_Direction
204 211 218 226 236 243 249 255 259 265 271 274 275 276 279 282 284 284 283 283 285 285 285 286 285 283 283 283 286 286 286 287 287 288 287 285 283 281 278 278 278 273
218 226 232 240 248 254 261 266 268 271 275 276 278 280 281 284 284 284 285 285 286 286 286 285 283 283 282 282 283 282 282 284 286 287 285 283 283 281 279 278 277 273
234 241 245 250 257 262 267 271 272 274 275 275 276 278 280 282 283 284 285 285 286 286 286 285 283 282 280 280 280 279 278 280 283 286 285 283 282 280 279 277 275 272
243 248 252 256 260 264 267 269 270 270 271 271 272 274 277 278 279 280 281 282 282 282 283 283 283 283 280 278 275 274 274 274 277 282 284 284 283 281 281 279 275 273
249 254 259 264 267 270 271 269 269 270 271 272 273 274 275 275 276 276 276 277 278 279 280 279 279 280 279 279 276 274 272 270 270 273 277 281 282 282 281 279 276 273
253 258 262 267 270 272 274 273 273 274 274 275 275 275 275 275 277 277 277 277 277 278 280 281 280 278 276 277 276 274 272 269 268 268 269 273 277 280 281 279 278 276
257 262 265 268 270 273 274 275 276 276 278 279 278 277 276 275 275 275 276 277 276 275 274 274 276 276 276 275 273 273 274 271 269 267 266 268 271 274 277 279 279 278
263 267 269 271 274 275 276 276 278 278 279 280 280 280 281 280 279 278 278 279 279 278 275 272 272 273 274 273 271 272 275 277 276 271 265 264 267 270 272 275 277 278
269 272 275 278 279 280 281 281 282 282 282 282 282 283 284 284 285 286 285 285 284 284 283 281 280 279 278 279 278 277 276 279 280 276 268 261 261 264 266 268 272 275
276 279 280 282 282 284 285 286 288 290 288 286 285 285 284 284 284 285 286 285 283 284 284 283 283 283 281 281 283 283 280 276 276 277 275 267 260 262 266 268 269 270
277 279 280 282 283 285 286 287 287 285 283 282 284 285 287 286 284 284 284 283 280 281 282 281 282 282 279 277 279 281 282 278 274 273 275 272 265 261 263 267 268 268
278 278 279 280 281 282 283 281 278 278 281 285 288 288 288 287 285 285 285 284 282 281 280 279 279 279 279 279 277 277 279 280 277 275 275 274 269 260 256 259 263 267
278 277 277 278 278 278 278 277 279 285 290 290 288 288 287 285 284 284 283 283 282 282 281 281 280 279 279 280 280 278 278 279 278 277 277 277 274 266 256 252 256 261
276 276 275 275 274 274 278 286 292 295 291 288 286 285 283 282 282 282 281 280 279 279 278 278 279 279 278 279 279 280 280 280 278 276 277 277 276 273 264 255 253 256
274 273 272 275 279 283 287 290 289 286 283 281 279 278 278 277 276 275 275 275 276 277 277 275 273 273 273 274 275 277 278 280 280 279 280 280 278 278 275 266 259 256
274 273 275 281 285 285 282 280 277 275 273 272 270 271 272 273 271 271 272 273 274 274 274 274 272 270 270 271 272 274 275 276 278 278 278 280 281 280 280 276 268 260
276 277 278 279 278 276 276 275 272 269 268 269 271 272 274 276 277 277 278 277 276 274 273 272 272 272 272 273 272 272 273 273 274 274 274 275 277 276 276 275 272 266
280 281 281 280 281 282 282 279 276 276 279 280 280 280 281 282 283 281 280 278 276 273 272 272 272 272 273 274 274 273 273 273 273 273 273 272 271 270 270 269 267 265
287 288 287 287 288 287 285 284 287 289 288 285 285 284 282 280 278 277 275 274 271 270 270 271 272 272 272 272 272 273 273 273 273 272 272 270 267 266 265 264 263 261
292 291 288 287 287 287 287 291 294 292 287 284 284 283 281 277 275 274 272 272 272 272 272 271 270 271 271 270 269 270 271 272 271 269 267 265 263 262 260 259 259 258
292 291 290 290 290 290 290 291 290 289 288 288 286 284 282 279 277 277 276 277 278 278 276 274 271 270 270 270 271 273 275 277 275 272 267 264 261 258 256 256 255 254
293 294 294 296 298 298 296 293 288 285 285 285 286 285 283 281 281 281 281 281 281 281 279 277 273 270 270 272 274 276 277 277 275 272 268 264 260 257 254 253 252 251
298 297 295 295 297 300 300 298 294 289 287 285 284 283 281 282 282 282 283 283 281 280 280 276 272 269 271 273 274 274 273 271 268 265 262 260 259 256 254 251 248 247
300 303 304 302 301 301 300 298 296 295 292 288 285 284 283 284 285 284 283 282 279 278 276 273 270 271 273 272 270 269 267 263 261 259 257 256 255 254 253 250 247 246
309 314 313 310 306 301 296 296 297 297 295 292 291 291 290 288 288 286 284 281 279 276 273 269 268 269 268 265 264 267 265 259 255 252 250 249 250 251 251 250 248 246
311 309 306 304 302 299 297 297 296 294 293 294 293 291 289 288 288 286 283 280 277 275 272 270 268 266 263 259 260 264 264 258 253 248 243 243 245 246 247 248 248 245
Height
775 775 776 777 777 777 777 777 777 776 776 775 774 774 774 774 773 773 772 772 771 771 770 770 770 770 769 769 769 769 768 768 767 767 766 766 765 764 764 764 763 763
773 774 775 775 775 775 775 775 775 774 774 773 773 772 772 772 771 771 770 769 769 768 768 768 767 767 767 767 767 766 766 765 765 765 764 763 763 762 762 761 760 761
771 772 773 773 773 773 772 772 772 772 771 771 770 770 770 769 769 768 768 767 767 766 766 765 765 765 765 764 764 764 763 763 763 763 762 761 761 760 759 759 758 758
769 770 770 770 770 770 770 769 769 769 768 768 768 767 767 767 766 766 765 765 764 764 764 763 763 762 762 761 761 761 760 761 761 761 760 759 758 758 757 756 755 755
767 767 767 768 767 767 767 767 766 766 766 765 765 765 764 764 763 763 763 762 762 761 761 761 760 760 760 759 758 758 757 757 758 758 757 757 756 756 754 754 752 752
764 764 765 765 765 765 765 764 764 763 763 763 762 762 762 761 761 760 760 759 759 759 758 758 757 757 756 756 755 754 754 754 754 754 754 754 754 754 753 751 750 749
761 762 762 762 762 762 762 761 761 761 760 760 759 759 759 758 758 757 757 756 755 755 754 754 754 753 753 753 752 751 751 750 750 750 750 750 751 751 750 750 748 746
759 759 759 759 759 759 759 758 758 758 758 758 756 756 756 755 755 754 754 753 752 751 750 750 750 749 749 749 748 747 747 747 747 747 747 747 747 748 748 747 746 744
756 757 757 757 756 756 756 756 756 755 755 755 754 754 753 753 752 752 751 750 749 748 747 747 746 746 746 745 744 744 743 743 744 744 743 743 743 743 744 744 744 742
754 754 754 754 754 754 754 754 754 753 753 752 752 751 750 750 750 749 748 748 747 746 745 744 743 743 743 742 741 741 740 740 740 740 740 739 739 739 740 740 740 740
752 752 752 752 752 752 752 752 752 751 751 750 749 748 747 747 747 746 746 745 744 743 742 741 741 740 740 738 738 738 738 737 736 737 736 736 735 735 736 737 737 737
749 749 749 749 750 750 750 749 749 748 747 747 746 746 745 744 744 744 743 742 741 741 740 739 738 738 737 735 735 735 735 734 733 733 733 732 732 731 732 733 733 734
747 747 747 747 747 747 747 746 745 745 744 744 744 743 743 742 741 741 741 740 739 738 737 736 735 734 734 733 733 732 732 731 730 730 730 729 729 728 728 728 729 730
745 745 745 745 744 744 743 742 742 742 742 742 742 741 740 740 739 738 738 737 736 735 734 733 732 731 731 730 730 730 730 729 728 727 726 726 726 725 725 725 725 726
743 743 742 742 741 740 740 739 739 740 740 739 739 738 737 736 735 735 734 733 732 732 731 730 729 728 727 728 728 727 727 726 725 725 724 723 723 723 722 722 721 722
741 740 739 739 738 737 737 736 736 736 735 735 734 733 733 732 731 730 730 729 728 727 727 726 725 724 723 724 724 724 724 723 722 722 722 721 721 720 720 719 719 719
738 737 736 736 735 734 733 733 732 731 730 730 729 729 728 728 727 726 725 725 724 723 722 721 720 720 720 720 720 720 720 719 719 719 718 718 718 718 717 717 717 716
736 735 733 733 731 731 730 729 728 727 726 726 725 725 724 723 723 722 721 721 720 719 718 717 716 716 716 716 716 716 716 715 715 714 714 714 715 715 715 714 714 713
734 732 731 730 729 728 727 725 724 723 723 723 722 721 721 719 719 718 717 717 716 714 713 712 712 712 711 711 711 711 712 711 710 710 710 710 710 711 711 711 710 710
731 730 729 727 726 725 724 722 721 720 720 720 719 718 717 715 715 714 713 712 711 710 709 707 707 707 707 707 707 707 707 707 706 705 705 705 705 706 706 706 706 707
729 728 727 725 723 722 720 719 719 718 718 717 716 714 713 712 711 709 708 707 707 706 705 703 702 702 702 702 702 702 703 702 701 701 700 700 699 700 701 701 702 702
727 726 725 723 721 720 718 717 716 715 715 714 712 711 710 708 707 706 705 704 703 703 701 698 698 698 697 696 697 697 698 697 696 696 695 694 693 694 695 695 696 697
726 725 723 721 720 718 717 715 714 712 712 711 709 708 706 705 704 702 701 700 699 699 697 694 693 693 692 691 691 692 692 691 690 689 689 688 687 688 689 689 690 691
725 724 722 720 718 717 716 714 712 710 709 708 706 704 702 701 700 698 697 696 694 693 692 689 687 687 686 684 683 684 685 684 683 682 681 681 681 682 683 683 683 685
724 723 722 720 717 716 714 712 710 708 707 705 704 701 699 698 697 695 693 691 689 687 686 683 680 678 677 676 675 676 677 676 676 675 673 673 675 676 677 677 678 678
723 722 721 719 717 715 713 711 709 706 705 703 700 698 696 694 692 690 687 685 683 681 678 676 672 668 667 667 667 667 668 669 668 666 665 666 667 669 670 671 672 672